Adak, AK

11:27 PM HST on February 23, 2017 (GMT -1000)
Adak

Weather History for PADK - December, 2011

Change the Weather History Date:

Tuesday, December 13, 2011

  Actual Average Record
Temperature  
Mean Temperature 34 °F -  
Max Temperature 35 °F 37 °F 47 °F (1968)
Min Temperature 32 °F 29 °F 10 °F (1965)
Degree Days  
Heating Degree Days 32    
Moisture  
Dew Point 28 °F    
Average Humidity 82    
Maximum Humidity 100    
Minimum Humidity 60    
Precipitation  
Precipitation 0.00 in - - ()
Sea Level Pressure  
Sea Level Pressure 28.62 in    
Wind  
Wind Speed 47 mph (WSW)    
Max Wind Speed 66 mph    
Max Gust Speed 79 mph    
Visibility 6 miles    
Events      
Averages and records for this station are not official NWS values.
T = Trace of Precipitation, MM = Missing Value Source: NWS Daily Summary

Daily Weather History Graph

Daily Weather History Graph

Search for Another Location

Airport or City:

Trip Planner

Search our weather history database for the weather conditions in past years. The results will help you decide how hot, cold, wet, or windy it might be!

Date:

Astronomy

Dec. 13, 2011 Rise Set
Actual Time 9:46 AM HST 5:35 PM HST
Civil Twilight 9:05 AM HST 6:16 PM HST
Nautical Twilight 8:21 AM HST 6:59 PM HST
Astronomical Twilight 7:40 AM HST 7:40 PM HST
Moon 9:23 PM HST (12/13) 11:50 AM HST (12/13)
Length of Visible Light 9h 10m
Length of Day
7h 49m
Waning Gibbous, 89% of the Moon is Illuminated
Dec 13
Waning Gibbous
Dec 17
Last Quarter
Dec 24
New
Dec 31
First Quarter
Jan 8
Full

Hourly Weather History & Observations

Time (HST) Temp. Windchill Dew Point Humidity Pressure Visibility Wind Dir Wind Speed Gust Speed Precip Events Conditions
12:16 AM 35.6 °F 20.0 °F 33.8 °F 93% 28.17 in 3.0 mi West 46.0 mph 57.5 mph N/A   Overcast
12:36 AM 35.6 °F 20.0 °F 33.8 °F 93% 28.17 in 3.0 mi West 46.0 mph 67.9 mph N/A   Overcast
1:16 AM 35.6 °F 18.1 °F 33.8 °F 93% 28.20 in 2.0 mi West 62.1 mph 79.4 mph N/A   Overcast
1:36 AM 35.6 °F 17.8 °F 32.0 °F 87% 28.23 in 2.5 mi West 65.6 mph 78.3 mph N/A   Overcast
1:56 AM 35.6 °F 18.7 °F 30.2 °F 81% 28.27 in 2.0 mi West 56.4 mph 74.8 mph N/A   Overcast
2:36 AM 33.8 °F 17.1 °F 32.0 °F 93% 28.31 in 1.8 mi West 48.3 mph 62.1 mph N/A   Overcast
3:16 AM 33.8 °F 17.3 °F 32.0 °F 93% 28.33 in 1.0 mi West 47.2 mph 64.4 mph N/A   Overcast
3:36 AM 33.8 °F 17.1 °F 32.0 °F 93% 28.34 in 1.0 mi West 48.3 mph 62.1 mph N/A   Overcast
3:56 AM 33.8 °F 16.4 °F 30.2 °F 87% 28.35 in 0.8 mi West 54.1 mph 72.5 mph N/A   Overcast
4:56 AM 33.8 °F 16.7 °F 30.2 °F 87% 28.42 in 0.5 mi West 51.8 mph 67.9 mph N/A   Overcast
5:16 AM 33.8 °F 16.7 °F 30.2 °F 87% 28.43 in 0.5 mi West 51.8 mph 70.2 mph N/A   Overcast
5:36 AM 32.0 °F 14.4 °F 32.0 °F 100% 28.45 in 0.5 mi West 49.5 mph 64.4 mph N/A   Overcast
5:56 AM 32.0 °F 14.1 °F 30.2 °F 93% 28.46 in 0.5 mi West 51.8 mph 63.3 mph N/A   Overcast
6:16 AM 32.0 °F 14.4 °F 30.2 °F 93% 28.48 in 0.5 mi West 49.5 mph 65.6 mph N/A   Overcast
6:36 AM 32.0 °F 14.3 °F 30.2 °F 93% 28.50 in 0.5 mi West 50.6 mph 66.7 mph N/A   Overcast
6:56 AM 32.0 °F 13.4 °F 30.2 °F 93% 28.51 in 1.0 mi WSW 57.5 mph 66.7 mph N/A   Overcast
7:36 AM 32.0 °F 14.3 °F 30.2 °F 93% 28.55 in 0.8 mi WSW 50.6 mph 70.2 mph N/A   Overcast
7:56 AM 32.0 °F 14.1 °F 30.2 °F 93% 28.57 in 0.8 mi WSW 51.8 mph 70.2 mph N/A   Overcast
8:16 AM 32.0 °F 15.6 °F 30.2 °F 93% 28.59 in 0.8 mi West 41.4 mph 61.0 mph N/A   Overcast
8:36 AM 32.0 °F 15.4 °F 28.4 °F 87% 28.60 in 0.8 mi West 42.6 mph 70.2 mph N/A   Overcast
8:56 AM 32.0 °F 14.3 °F 30.2 °F 93% 28.61 in 1.0 mi WSW 50.6 mph 57.5 mph N/A   Overcast
9:16 AM 32.0 °F 14.9 °F 28.4 °F 87% 28.62 in 4.0 mi WSW 46.0 mph 61.0 mph N/A   Overcast
9:36 AM 32.0 °F 14.1 °F 28.4 °F 87% 28.63 in 1.8 mi WSW 51.8 mph 58.7 mph N/A   Overcast
9:56 AM 32.0 °F 14.1 °F 28.4 °F 87% 28.64 in 1.2 mi WSW 51.8 mph 63.3 mph N/A   Overcast
10:16 AM 32.0 °F 14.1 °F 28.4 °F 87% 28.66 in 2.5 mi WSW 51.8 mph 62.1 mph N/A   Overcast
10:36 AM 32.0 °F 14.8 °F 28.4 °F 87% 28.67 in 5.0 mi WSW 47.2 mph 59.8 mph N/A   Overcast
10:56 AM 33.8 °F 17.0 °F 28.4 °F 81% 28.68 in 4.0 mi WSW 49.5 mph 58.7 mph N/A   Overcast
11:16 AM 33.8 °F 17.0 °F 28.4 °F 81% 28.68 in 7.0 mi WSW 49.5 mph 63.3 mph N/A   Overcast
11:36 AM 33.8 °F 17.9 °F 28.4 °F 81% 28.69 in 9.0 mi WSW 42.6 mph 57.5 mph N/A   Mostly Cloudy
11:56 AM 33.8 °F 17.5 °F 28.4 °F 81% 28.69 in 8.0 mi WSW 46.0 mph 58.7 mph N/A   Overcast
12:16 PM 33.8 °F 18.1 °F 28.4 °F 81% 28.70 in 10.0 mi WSW 41.4 mph 55.2 mph N/A   Overcast
12:36 PM 33.8 °F 17.6 °F 26.6 °F 75% 28.70 in 9.0 mi WSW 44.9 mph 61.0 mph N/A   Overcast
12:56 PM 33.8 °F 17.9 °F 30.2 °F 87% 28.70 in 4.0 mi WSW 42.6 mph 57.5 mph N/A   Overcast
1:16 PM 33.8 °F 17.8 °F 30.2 °F 87% 28.71 in 10.0 mi WSW 43.7 mph 54.1 mph N/A   Mostly Cloudy
1:36 PM 33.8 °F 18.6 °F 28.4 °F 81% 28.73 in 10.0 mi WSW 38.0 mph 57.5 mph N/A   Mostly Cloudy
1:56 PM 33.8 °F 19.4 °F 28.4 °F 81% 28.75 in 10.0 mi WSW 33.4 mph 43.7 mph N/A   Overcast
2:16 PM 35.6 °F 23.7 °F 28.4 °F 75% 28.76 in 9.0 mi West 24.2 mph 34.5 mph N/A   Mostly Cloudy
2:56 PM 35.6 °F 20.6 °F 26.6 °F 70% 28.76 in 10.0 mi WSW 41.4 mph 49.5 mph N/A   Mostly Cloudy
3:16 PM 35.6 °F 21.1 °F 26.6 °F 70% 28.77 in 10.0 mi WSW 38.0 mph 49.5 mph N/A   Scattered Clouds
3:36 PM 35.6 °F 21.1 °F 26.6 °F 70% 28.78 in 10.0 mi West 38.0 mph 42.6 mph N/A   Mostly Cloudy
3:56 PM 35.6 °F 21.9 °F 26.6 °F 70% 28.79 in 10.0 mi WSW 33.4 mph 40.3 mph N/A   Mostly Cloudy
4:16 PM 33.8 °F 19.2 °F 26.6 °F 75% 28.80 in 10.0 mi WSW 34.5 mph 46.0 mph N/A   Mostly Cloudy
4:36 PM 33.8 °F 19.9 °F 26.6 °F 75% 28.82 in 10.0 mi WSW 31.1 mph 41.4 mph N/A   Mostly Cloudy
4:56 PM 33.8 °F 20.8 °F 26.6 °F 75% 28.83 in 10.0 mi West 26.5 mph 46.0 mph N/A   Mostly Cloudy
5:16 PM 33.8 °F 19.9 °F 24.8 °F 70% 28.84 in 10.0 mi West 31.1 mph 40.3 mph N/A   Mostly Cloudy
5:36 PM 33.8 °F 20.1 °F 26.6 °F 75% 28.85 in 10.0 mi West 29.9 mph 38.0 mph N/A   Mostly Cloudy
5:56 PM 33.8 °F 19.4 °F 23.0 °F 65% 28.86 in 10.0 mi WSW 33.4 mph 44.9 mph N/A   Mostly Cloudy
6:16 PM 33.8 °F 20.3 °F 24.8 °F 70% 28.87 in 10.0 mi WSW 28.8 mph 36.8 mph N/A   Overcast
6:36 PM 33.8 °F 19.6 °F 21.2 °F 60% 28.88 in 10.0 mi WSW 32.2 mph 40.3 mph N/A   Mostly Cloudy
6:56 PM 33.8 °F 19.2 °F 21.2 °F 60% 28.88 in 10.0 mi WSW 34.5 mph 39.1 mph N/A   Partly Cloudy
7:16 PM 33.8 °F 19.9 °F 21.2 °F 60% 28.89 in 10.0 mi WSW 31.1 mph 40.3 mph N/A   Clear
7:36 PM 32.0 °F 17.9 °F 19.4 °F 60% 28.90 in 10.0 mi WSW 28.8 mph 38.0 mph N/A   Clear
7:56 PM 32.0 °F 19.8 °F 19.4 °F 60% 28.92 in 10.0 mi WSW 20.7 mph 34.5 mph N/A   Clear
8:16 PM 32.0 °F 18.9 °F 21.2 °F 64% 28.92 in 10.0 mi WSW 24.2 mph 33.4 mph N/A   Partly Cloudy
8:36 PM 32.0 °F 17.9 °F 23.0 °F 69% 28.92 in 10.0 mi WSW 28.8 mph 33.4 mph N/A   Clear
8:56 PM 30.2 °F 16.5 °F 24.8 °F 80% 28.94 in 10.0 mi SW 24.2 mph 31.1 mph N/A   Clear
9:16 PM 30.2 °F 17.4 °F 24.8 °F 80% 28.94 in 10.0 mi SW 20.7 mph 27.6 mph N/A   Partly Cloudy
9:36 PM 30.2 °F 17.8 °F 24.8 °F 80% 28.95 in 10.0 mi WSW 19.6 mph 27.6 mph N/A   Scattered Clouds
9:56 PM 30.2 °F 18.1 °F 24.8 °F 80% 28.96 in 10.0 mi WSW 18.4 mph - N/A   Partly Cloudy
10:16 PM 32.0 °F 20.5 °F 21.2 °F 64% 28.96 in 10.0 mi SW 18.4 mph - N/A   Partly Cloudy
10:36 PM 30.2 °F 18.9 °F 23.0 °F 75% 28.97 in 10.0 mi SW 16.1 mph 26.5 mph N/A   Partly Cloudy
10:56 PM 30.2 °F 17.1 °F 23.0 °F 75% 28.97 in 10.0 mi WSW 21.9 mph 25.3 mph N/A   Clear
11:16 PM 30.2 °F 17.4 °F 21.2 °F 69% 28.97 in 10.0 mi SW 20.7 mph - N/A   Scattered Clouds
11:36 PM 30.2 °F 18.1 °F 23.0 °F 75% 28.97 in 10.0 mi SW 18.4 mph - N/A   Scattered Clouds
11:56 PM 30.2 °F 19.3 °F 28.4 °F 93% 28.98 in 2.0 mi WSW 15.0 mph 33.4 mph N/A   Overcast